• In Spain
  • List of Countries
  • For 7 days
  • Water Temperature
  • Satellite Maps
  • Weather Map
  • Weather Widgets
  • user-avatar
    Login

    Hourly Weather Madrid

    Today, 22 July, Sunday

    Time Temperature Precipitation Wind Pressure Humidity
    00:00 +22°C° 0 mm 4 mps 706 mmHg 43%
    01:00 +22°C° 0.2 mm 4 mps 706 mmHg 46%
    02:00 +21°C° 0.2 mm 4 mps 706 mmHg 50%
    03:00 +21°C° 0.2 mm 4 mps 706 mmHg 54%
    04:00 +20°C° 0.3 mm 3 mps 706 mmHg 56%
    05:00 +20°C° 0.3 mm 3 mps 706 mmHg 57%
    06:00 +20°C° 0.3 mm 3 mps 706 mmHg 59%
    07:00 +22°C° 0.1 mm 3 mps 706 mmHg 54%
    08:00 +25°C° 0.1 mm 3 mps 706 mmHg 49%
    09:00 +26°C° 0.1 mm 2 mps 706 mmHg 44%
    10:00 +28°C° 0 mm 2 mps 706 mmHg 39%
    11:00 +29°C° 0 mm 2 mps 707 mmHg 34%
    12:00 +31°C° 0 mm 1 mps 707 mmHg 30%
    13:00 +32°C° 0 mm 1 mps 707 mmHg 27%
    14:00 +32°C° 0 mm 1 mps 706 mmHg 25%
    15:00 +33°C° 0 mm 1 mps 706 mmHg 22%
    16:00 +33°C° 0 mm 1 mps 706 mmHg 22%
    17:00 +33°C° 0 mm 1 mps 706 mmHg 22%
    18:00 +32°C° 0 mm 1 mps 706 mmHg 22%
    19:00 +31°C° 0 mm 1 mps 706 mmHg 24%
    20:00 +30°C° 0 mm 2 mps 707 mmHg 26%
    21:00 +28°C° 0 mm 2 mps 707 mmHg 28%
    22:00 +27°C° 0 mm 2 mps 707 mmHg 32%
    23:00 +27°C° 0 mm 3 mps 707 mmHg 37%

    Tomorrow, 23 July, Monday

    Time Temperature Precipitation Wind Pressure Humidity
    00:00 +26°C° 0 mm 3 mps 707 mmHg 41%
    01:00 +25°C° 0 mm 3 mps 707 mmHg 47%
    02:00 +24°C° 0 mm 3 mps 707 mmHg 52%
    03:00 +24°C° 0 mm 3 mps 707 mmHg 58%
    04:00 +24°C° 0 mm 3 mps 707 mmHg 62%
    05:00 +22°C° 0 mm 3 mps 707 mmHg 65%
    06:00 +22°C° 0 mm 3 mps 707 mmHg 68%
    07:00 +25°C° 0 mm 3 mps 707 mmHg 61%
    08:00 +27°C° 0 mm 2 mps 707 mmHg 54%
    09:00 +29°C° 0 mm 2 mps 707 mmHg 47%
    10:00 +30°C° 0 mm 3 mps 707 mmHg 39%
    11:00 +33°C° 0 mm 3 mps 707 mmHg 31%
    12:00 +35°C° 0 mm 3 mps 707 mmHg 24%
    13:00 +36°C° 0 mm 3 mps 707 mmHg 21%
    14:00 +37°C° 0 mm 4 mps 707 mmHg 18%
    15:00 +37°C° 0 mm 4 mps 706 mmHg 15%
    16:00 +37°C° 0 mm 4 mps 706 mmHg 14%
    17:00 +37°C° 0 mm 4 mps 706 mmHg 14%
    18:00 +37°C° 0 mm 4 mps 706 mmHg 13%
    19:00 +35°C° 0 mm 4 mps 706 mmHg 15%
    20:00 +33°C° 0 mm 3 mps 706 mmHg 17%
    21:00 +30°C° 0 mm 3 mps 706 mmHg 18%
    22:00 +29°C° 0 mm 3 mps 706 mmHg 21%
    23:00 +28°C° 0 mm 3 mps 706 mmHg 23%

    Day after tomorrow, 24 July, Tuesday

    Time Temperature Precipitation Wind Pressure Humidity
    00:00 +27°C° 0 mm 2 mps 706 mmHg 26%
    01:00 +26°C° 0 mm 2 mps 706 mmHg 29%
    02:00 +25°C° 0 mm 2 mps 706 mmHg 32%
    03:00 +25°C° 0 mm 2 mps 706 mmHg 36%
    04:00 +24°C° 0 mm 2 mps 706 mmHg 38%
    05:00 +24°C° 0 mm 2 mps 706 mmHg 40%
    06:00 +24°C° 0 mm 2 mps 706 mmHg 42%
    07:00 +26°C° 0 mm 2 mps 706 mmHg 38%
    08:00 +28°C° 0 mm 3 mps 707 mmHg 34%
    09:00 +30°C° 0 mm 3 mps 707 mmHg 29%
    10:00 +31°C° 0 mm 3 mps 707 mmHg 26%
    11:00 +33°C° 0 mm 4 mps 707 mmHg 23%
    12:00 +34°C° 0 mm 4 mps 707 mmHg 19%
    13:00 +35°C° 0 mm 4 mps 706 mmHg 18%
    14:00 +36°C° 0 mm 4 mps 706 mmHg 16%
    15:00 +36°C° 0 mm 4 mps 706 mmHg 15%
    16:00 +36°C° 0 mm 4 mps 706 mmHg 15%
    17:00 +36°C° 0 mm 4 mps 705 mmHg 15%
    18:00 +36°C° 0 mm 4 mps 705 mmHg 16%
    19:00 +34°C° 0 mm 4 mps 705 mmHg 18%
    20:00 +31°C° 0 mm 3 mps 706 mmHg 20%
    21:00 +29°C° 0 mm 3 mps 706 mmHg 22%
    22:00 +28°C° 0 mm 3 mps 706 mmHg 23%
    23:00 +27°C° 0 mm 2 mps 706 mmHg 25%

    25 July, Wednesday

    Time Temperature Precipitation Wind Pressure Humidity
    00:00 +26°C° 0 mm 2 mps 706 mmHg 27%
    01:00 +25°C° 0 mm 2 mps 706 mmHg 29%
    02:00 +25°C° 0 mm 2 mps 706 mmHg 31%
    03:00 +24°C° 0 mm 2 mps 705 mmHg 33%
    04:00 +24°C° 0 mm 2 mps 706 mmHg 36%
    05:00 +23°C° 0 mm 2 mps 706 mmHg 39%
    06:00 +23°C° 0 mm 2 mps 706 mmHg 41%
    07:00 +25°C° 0 mm 2 mps 706 mmHg 38%
    08:00 +27°C° 0 mm 3 mps 706 mmHg 34%
    09:00 +29°C° 0 mm 3 mps 707 mmHg 31%
    10:00 +30°C° 0 mm 3 mps 707 mmHg 27%
    11:00 +32°C° 0 mm 4 mps 706 mmHg 24%
    12:00 +34°C° 0 mm 4 mps 706 mmHg 21%
    13:00 +35°C° 0 mm 4 mps 706 mmHg 19%
    14:00 +35°C° 0 mm 4 mps 706 mmHg 18%
    15:00 +36°C° 0 mm 4 mps 706 mmHg 17%
    16:00 +36°C° 0 mm 4 mps 706 mmHg 17%
    17:00 +36°C° 0 mm 4 mps 706 mmHg 18%
    18:00 +35°C° 0 mm 4 mps 706 mmHg 18%
    19:00 +34°C° 0 mm 3 mps 706 mmHg 21%
    20:00 +31°C° 0 mm 3 mps 706 mmHg 24%
    21:00 +29°C° 0 mm 3 mps 706 mmHg 26%
    22:00 +28°C° 0 mm 3 mps 707 mmHg 29%
    23:00 +27°C° 0 mm 2 mps 707 mmHg 33%

    26 July, Thursday

    Time Temperature Precipitation Wind Pressure Humidity
    00:00 +26°C° 0 mm 2 mps 707 mmHg 36%
    01:00 +26°C° 0 mm 2 mps 707 mmHg 39%
    02:00 +25°C° 0 mm 2 mps 707 mmHg 42%
    03:00 +25°C° 0 mm 2 mps 706 mmHg 45%
    04:00 +24°C° 0 mm 2 mps 707 mmHg 48%
    05:00 +24°C° 0 mm 2 mps 707 mmHg 50%
    06:00 +24°C° 0 mm 2 mps 707 mmHg 53%
    07:00 +26°C° 0 mm 2 mps 707 mmHg 47%
    08:00 +28°C° 0 mm 2 mps 707 mmHg 42%
    09:00 +29°C° 0 mm 2 mps 707 mmHg 37%
    10:00 +31°C° 0 mm 2 mps 707 mmHg 33%
    11:00 +32°C° 0 mm 2 mps 707 mmHg 28%
    12:00 +35°C° 0 mm 2 mps 707 mmHg 24%
    13:00 +36°C° 0 mm 2 mps 707 mmHg 22%
    14:00 +36°C° 0 mm 2 mps 706 mmHg 19%
    15:00 +37°C° 0 mm 3 mps 706 mmHg 17%
    16:00 +37°C° 0 mm 3 mps 706 mmHg 17%
    17:00 +37°C° 0 mm 3 mps 706 mmHg 17%
    18:00 +36°C° 0 mm 2 mps 705 mmHg 17%
    19:00 +35°C° 0 mm 2 mps 706 mmHg 20%
    20:00 +32°C° 0 mm 2 mps 706 mmHg 23%
    21:00 +30°C° 0 mm 2 mps 706 mmHg 26%
    22:00 +29°C° 0 mm 2 mps 706 mmHg 29%
    23:00 +29°C° 0 mm 2 mps 706 mmHg 32%

    27 July, Friday

    Time Temperature Precipitation Wind Pressure Humidity
    00:00 +28°C° 0 mm 2 mps 706 mmHg 34%
    01:00 +27°C° 0 mm 2 mps 706 mmHg 37%
    02:00 +26°C° 0 mm 2 mps 705 mmHg 40%
    03:00 +26°C° 0 mm 2 mps 705 mmHg 43%
    04:00 +25°C° 0 mm 2 mps 705 mmHg 44%
    05:00 +25°C° 0 mm 1 mps 706 mmHg 45%
    06:00 +25°C° 0 mm 1 mps 706 mmHg 47%
    07:00 +27°C° 0 mm 1 mps 706 mmHg 41%
    08:00 +29°C° 0 mm 2 mps 706 mmHg 35%
    09:00 +31°C° 0 mm 2 mps 707 mmHg 30%
    10:00 +33°C° 0 mm 3 mps 706 mmHg 26%
    11:00 +35°C° 0 mm 3 mps 706 mmHg 22%
    12:00 +36°C° 0 mm 4 mps 706 mmHg 18%
    13:00 +37°C° 0 mm 4 mps 706 mmHg 17%
    14:00 +38°C° 0 mm 4 mps 706 mmHg 15%
    15:00 +39°C° 0 mm 5 mps 706 mmHg 14%
    16:00 +38°C° 0 mm 4 mps 706 mmHg 14%
    17:00 +38°C° 0 mm 4 mps 706 mmHg 15%
    18:00 +37°C° 0 mm 4 mps 706 mmHg 15%
    19:00 +35°C° 0 mm 4 mps 706 mmHg 17%
    20:00 +34°C° 0 mm 3 mps 706 mmHg 20%
    21:00 +31°C° 0 mm 3 mps 706 mmHg 22%
    22:00 +30°C° 0 mm 3 mps 706 mmHg 26%
    23:00 +29°C° 0 mm 2 mps 706 mmHg 29%
    Show more